Location: Dittelbrunn
(50.0738°N, 10.2196°E)
Time: 04:32:04
(UTC+00:00)

Lacrosse 5 rocket - Pass Details

Date: 18 September 2020
Orbit: 461 x 635 km, 57.0° (Epoch: 20 October)

Event Time Altitude Azimuth Distance (km) Brightness Sun altitude
Rises 21:26:45 0° 298° (WNW) 2,844 5.8 -33.7°
Reaches altitude 10° 21:29:05 10° 305° (NW) 1,964 4.8 -33.9°
Enters shadow 21:30:50 22° 316° (NW) 1,354 3.8 -34.1°
